When you browse on this site, cookies collect data to enhance your experience and personalize the content and advertising you see.
Visit our Privacy Policy to learn more. By continuing to use the site, you agree to this use of cookies and data.
  • Em Portugal
  • Lista de países
  • Para 7 dias
  • Temperatura da água
  • Mapa do tempo
  • Widgets de tempo
  • user-avatar
    Iniciar Sessão

    Previsão horária em Crete

    Hoje, 7 Dezembro, Sábado

    Tempo Temperatura Precipitação Vento Pressão Humidade
    00:00 +8°C° 0 mm 2 m/s 712 mmHg 85%
    01:00 +8°C° 0 mm 2 m/s 712 mmHg 85%
    02:00 +9°C° 0 mm 1 m/s 712 mmHg 85%
    03:00 +8°C° 0 mm 1 m/s 712 mmHg 85%
    04:00 +8°C° 0 mm 1 m/s 712 mmHg 85%
    05:00 +8°C° 0 mm 1 m/s 711 mmHg 86%
    06:00 +9°C° 0 mm 1 m/s 711 mmHg 85%
    07:00 +9°C° 0 mm 1 m/s 711 mmHg 84%
    08:00 +9°C° 0 mm 1 m/s 712 mmHg 83%
    09:00 +11°C° 0 mm 1 m/s 712 mmHg 76%
    10:00 +13°C° 0 mm 1 m/s 712 mmHg 70%
    11:00 +14°C° 0 mm 1 m/s 712 mmHg 63%
    12:00 +15°C° 0 mm 1 m/s 712 mmHg 62%
    13:00 +15°C° 0 mm 2 m/s 711 mmHg 61%
    14:00 +16°C° 0 mm 2 m/s 711 mmHg 60%
    15:00 +15°C° 0 mm 2 m/s 710 mmHg 67%
    16:00 +14°C° 0 mm 2 m/s 710 mmHg 74%
    17:00 +12°C° 0 mm 3 m/s 710 mmHg 81%
    18:00 +11°C° 0 mm 3 m/s 710 mmHg 82%
    19:00 +11°C° 0 mm 3 m/s 710 mmHg 83%
    20:00 +11°C° 0 mm 3 m/s 710 mmHg 84%
    21:00 +11°C° 0 mm 3 m/s 710 mmHg 83%
    22:00 +11°C° 0 mm 3 m/s 709 mmHg 82%
    23:00 +11°C° 0 mm 3 m/s 709 mmHg 81%

    Amanhã, 8 Dezembro, Domingo

    Tempo Temperatura Precipitação Vento Pressão Humidade
    00:00 +10°C° 0 mm 3 m/s 709 mmHg 82%
    01:00 +10°C° 0 mm 3 m/s 709 mmHg 83%
    02:00 +10°C° 0 mm 3 m/s 709 mmHg 84%
    03:00 +10°C° 0 mm 3 m/s 708 mmHg 86%
    04:00 +10°C° 0 mm 3 m/s 708 mmHg 88%
    05:00 +10°C° 0 mm 3 m/s 708 mmHg 90%
    06:00 +11°C° 0.1 mm 3 m/s 708 mmHg 90%
    07:00 +11°C° 0.1 mm 3 m/s 709 mmHg 90%
    08:00 +11°C° 0.1 mm 3 m/s 709 mmHg 91%
    09:00 +12°C° 0.1 mm 3 m/s 709 mmHg 84%
    10:00 +13°C° 0.1 mm 3 m/s 709 mmHg 78%
    11:00 +14°C° 0.1 mm 3 m/s 710 mmHg 72%
    12:00 +15°C° 0.1 mm 4 m/s 710 mmHg 70%
    13:00 +15°C° 0.1 mm 4 m/s 709 mmHg 69%
    14:00 +15°C° 0.1 mm 4 m/s 709 mmHg 67%
    15:00 +14°C° 0.2 mm 4 m/s 709 mmHg 73%
    16:00 +13°C° 0.2 mm 4 m/s 709 mmHg 79%
    17:00 +12°C° 0.2 mm 3 m/s 709 mmHg 84%
    18:00 +11°C° 0.2 mm 3 m/s 709 mmHg 86%
    19:00 +11°C° 0.2 mm 3 m/s 709 mmHg 88%
    20:00 +10°C° 0.2 mm 3 m/s 709 mmHg 90%
    21:00 +10°C° 0.1 mm 3 m/s 709 mmHg 90%
    22:00 +10°C° 0.1 mm 3 m/s 709 mmHg 89%
    23:00 +10°C° 0.1 mm 3 m/s 709 mmHg 89%

    Depois de amanhã, 9 Dezembro, Segunda-feira

    Tempo Temperatura Precipitação Vento Pressão Humidade
    00:00 +10°C° 0 mm 3 m/s 709 mmHg 89%
    01:00 +9°C° 0 mm 3 m/s 709 mmHg 89%
    02:00 +9°C° 0 mm 3 m/s 709 mmHg 89%
    03:00 +9°C° 0 mm 3 m/s 708 mmHg 88%
    04:00 +9°C° 0 mm 3 m/s 708 mmHg 88%
    05:00 +9°C° 0 mm 3 m/s 708 mmHg 88%
    06:00 +9°C° 0 mm 2 m/s 708 mmHg 87%
    07:00 +9°C° 0 mm 2 m/s 708 mmHg 87%
    08:00 +9°C° 0 mm 2 m/s 708 mmHg 86%
    09:00 +10°C° 0 mm 2 m/s 708 mmHg 78%
    10:00 +13°C° 0 mm 2 m/s 709 mmHg 70%
    11:00 +14°C° 0 mm 2 m/s 709 mmHg 61%
    12:00 +15°C° 0 mm 1 m/s 708 mmHg 60%
    13:00 +15°C° 0 mm 1 m/s 708 mmHg 59%
    14:00 +15°C° 0 mm 1 m/s 707 mmHg 58%
    15:00 +14°C° 0 mm 1 m/s 707 mmHg 64%
    16:00 +13°C° 0 mm 1 m/s 707 mmHg 69%
    17:00 +12°C° 0 mm 1 m/s 707 mmHg 74%
    18:00 +12°C° 0 mm 1 m/s 707 mmHg 76%
    19:00 +11°C° 0 mm 1 m/s 707 mmHg 78%
    20:00 +11°C° 0 mm 1 m/s 707 mmHg 80%
    21:00 +11°C° 0 mm 1 m/s 707 mmHg 80%
    22:00 +10°C° 0 mm 1 m/s 707 mmHg 80%
    23:00 +10°C° 0 mm 1 m/s 707 mmHg 80%

    10 Dezembro, Terça-feira

    Tempo Temperatura Precipitação Vento Pressão Humidade
    00:00 +10°C° 0 mm 1 m/s 706 mmHg 81%
    01:00 +9°C° 0 mm 2 m/s 706 mmHg 81%
    02:00 +9°C° 0 mm 2 m/s 705 mmHg 82%
    03:00 +9°C° 0.1 mm 2 m/s 705 mmHg 83%
    04:00 +10°C° 0.1 mm 2 m/s 705 mmHg 83%
    05:00 +10°C° 0.1 mm 2 m/s 705 mmHg 83%
    06:00 +10°C° 0.2 mm 2 m/s 705 mmHg 84%
    07:00 +10°C° 0.2 mm 2 m/s 705 mmHg 84%
    08:00 +10°C° 0.2 mm 2 m/s 705 mmHg 85%
    09:00 +12°C° 0.2 mm 3 m/s 705 mmHg 79%
    10:00 +13°C° 0.2 mm 3 m/s 705 mmHg 74%
    11:00 +14°C° 0.2 mm 4 m/s 705 mmHg 68%
    12:00 +15°C° 0.3 mm 5 m/s 704 mmHg 67%
    13:00 +15°C° 0.3 mm 5 m/s 704 mmHg 65%
    14:00 +15°C° 0.3 mm 6 m/s 703 mmHg 63%
    15:00 +14°C° 0.3 mm 6 m/s 703 mmHg 68%
    16:00 +13°C° 0.3 mm 5 m/s 703 mmHg 73%
    17:00 +12°C° 0.3 mm 5 m/s 702 mmHg 77%
    18:00 +12°C° 0.4 mm 5 m/s 702 mmHg 79%
    19:00 +12°C° 0.4 mm 5 m/s 702 mmHg 81%
    20:00 +12°C° 0.4 mm 5 m/s 702 mmHg 82%
    21:00 +12°C° 0.4 mm 5 m/s 702 mmHg 83%
    22:00 +10°C° 0.4 mm 5 m/s 702 mmHg 84%
    23:00 +11°C° 0.4 mm 4 m/s 702 mmHg 85%

    11 Dezembro, Quarta-feira

    Tempo Temperatura Precipitação Vento Pressão Humidade
    00:00 +11°C° 0.2 mm 4 m/s 702 mmHg 85%
    01:00 +10°C° 0.2 mm 4 m/s 702 mmHg 85%
    02:00 +10°C° 0.2 mm 3 m/s 702 mmHg 85%
    03:00 +10°C° 0 mm 3 m/s 702 mmHg 83%
    04:00 +9°C° 0 mm 3 m/s 701 mmHg 80%
    05:00 +9°C° 0 mm 3 m/s 701 mmHg 78%
    06:00 +9°C° 0 mm 3 m/s 701 mmHg 79%
    07:00 +9°C° 0 mm 3 m/s 701 mmHg 80%
    08:00 +9°C° 0 mm 3 m/s 701 mmHg 81%
    09:00 +11°C° 0.2 mm 3 m/s 702 mmHg 76%
    10:00 +12°C° 0.2 mm 4 m/s 702 mmHg 71%
    11:00 +13°C° 0.2 mm 4 m/s 702 mmHg 66%
    12:00 +13°C° 0.6 mm 4 m/s 702 mmHg 67%
    13:00 +13°C° 0.6 mm 3 m/s 701 mmHg 68%
    14:00 +13°C° 0.6 mm 3 m/s 701 mmHg 69%
    15:00 +12°C° 0.2 mm 3 m/s 701 mmHg 73%
    16:00 +12°C° 0.2 mm 2 m/s 700 mmHg 77%
    17:00 +10°C° 0.2 mm 2 m/s 700 mmHg 81%
    18:00 +10°C° 0.1 mm 2 m/s 700 mmHg 83%
    19:00 +9°C° 0.1 mm 2 m/s 700 mmHg 85%
    20:00 +10°C° 0.1 mm 1 m/s 700 mmHg 87%
    21:00 +9°C° 0 mm 1 m/s 700 mmHg 85%
    22:00 +9°C° 0 mm 1 m/s 700 mmHg 84%
    23:00 +9°C° 0 mm 1 m/s 701 mmHg 82%

    12 Dezembro, Quinta-feira

    Tempo Temperatura Precipitação Vento Pressão Humidade
    00:00 +9°C° 0 mm 1 m/s 700 mmHg 79%
    01:00 +9°C° 0 mm 1 m/s 700 mmHg 77%
    02:00 +9°C° 0 mm 1 m/s 700 mmHg 75%
    03:00 +9°C° 0 mm 1 m/s 700 mmHg 75%
    04:00 +9°C° 0 mm 1 m/s 700 mmHg 75%
    05:00 +8°C° 0 mm 1 m/s 700 mmHg 74%
    06:00 +8°C° 0 mm 2 m/s 701 mmHg 76%
    07:00 +8°C° 0 mm 2 m/s 701 mmHg 79%
    08:00 +8°C° 0 mm 2 m/s 701 mmHg 81%
    09:00 +10°C° 0 mm 2 m/s 702 mmHg 76%
    10:00 +12°C° 0 mm 2 m/s 703 mmHg 71%
    11:00 +14°C° 0 mm 2 m/s 703 mmHg 66%
    12:00 +13°C° 0 mm 3 m/s 703 mmHg 65%
    13:00 +14°C° 0 mm 3 m/s 704 mmHg 65%
    14:00 +14°C° 0 mm 3 m/s 704 mmHg 65%
    15:00 +13°C° 0 mm 3 m/s 704 mmHg 71%
    16:00 +12°C° 0 mm 3 m/s 704 mmHg 78%
    17:00 +11°C° 0 mm 3 m/s 704 mmHg 84%
    18:00 +11°C° 0.1 mm 3 m/s 704 mmHg 86%
    19:00 +12°C° 0.1 mm 2 m/s 705 mmHg 87%
    20:00 +10°C° 0.1 mm 2 m/s 705 mmHg 89%
    21:00 +10°C° 0.1 mm 2 m/s 705 mmHg 89%
    22:00 +10°C° 0.1 mm 2 m/s 705 mmHg 89%
    23:00 +10°C° 0.1 mm 1 m/s 705 mmHg 90%
    Mostrar mais